Tracking 32407 objects as of 5-Dec-2025
HD Live streaming from Space Station
objects crossing your sky now

STARLINK-1591

Track STARLINK-1591 now!
10-day predictions
STARLINK-1591 is classified as:


NORAD ID: 46045
Int'l Code: 2020-055U
Perigee: 553.3 km
Apogee: 555.3 km
Inclination: 53.1 °
Period: 95.6 minutes
Semi major axis: 6925 km
RCS: Unknown
Launch date: August 7, 2020
Source: United States (US)
Launch site: AIR FORCE EASTERN TEST RANGE (AFETR)
Your satellite tracking list
Your tracking list is empty




NASA's NSSDC Master Catalog

Two Line Element Set (TLE):
1 46045U 20055U   25337.91290676  .00002372  00000-0  17800-3 0  9994
2 46045  53.0541 196.5753 0001392  83.1107 277.0040 15.06415048294436
Source of the keplerian elements: AFSPC